TimeMDT,TemperatureF,Dew PointF,Humidity,Sea Level PressureIn,VisibilityMPH,Wind Direction,Wind SpeedMPH,Gust SpeedMPH,PrecipitationIn,Events,Conditions,WindDirDegrees,DateUTC
12:53 AM,39.0,24.1,55,29.95,10.0,West,10.4,-,N/A,,Clear,270,2012-10-08 06:53:00
1:53 AM,39.9,24.1,53,29.93,10.0,WNW,10.4,-,N/A,,Clear,290,2012-10-08 07:53:00
2:53 AM,37.9,24.1,57,29.93,10.0,WNW,10.4,-,N/A,,Clear,300,2012-10-08 08:53:00
3:53 AM,35.1,24.1,64,29.93,10.0,NW,13.8,-,N/A,,Clear,320,2012-10-08 09:53:00
4:53 AM,36.0,23.0,59,29.93,10.0,NW,11.5,-,N/A,,Clear,310,2012-10-08 10:53:00
5:53 AM,36.0,24.1,62,29.94,10.0,NW,10.4,-,N/A,,Clear,310,2012-10-08 11:53:00
6:53 AM,46.0,19.9,35,29.91,10.0,West,11.5,-,N/A,,Clear,260,2012-10-08 12:53:00
7:26 AM,50.0,19.4,30,29.93,10.0,SW,21.9,-,N/A,,Clear,230,2012-10-08 13:26:00
7:53 AM,48.9,18.0,29,29.90,10.0,WSW,18.4,25.3,N/A,,Clear,250,2012-10-08 13:53:00
8:53 AM,48.0,18.0,30,29.93,10.0,SW,19.6,25.3,N/A,,Clear,220,2012-10-08 14:53:00
9:53 AM,52.0,18.0,26,29.92,10.0,WSW,18.4,24.2,N/A,,Clear,240,2012-10-08 15:53:00
10:53 AM,55.9,19.9,25,29.92,10.0,West,11.5,-,N/A,,Clear,270,2012-10-08 16:53:00
11:53 AM,54.0,27.0,35,29.92,10.0,NNW,10.4,-,N/A,,Clear,330,2012-10-08 17:53:00
12:53 PM,55.9,27.0,33,29.90,10.0,NNW,9.2,-,N/A,,Partly Cloudy,330,2012-10-08 18:53:00
1:44 PM,59.0,21.2,23,29.89,8.0,WSW,18.4,-,N/A,,Overcast,240,2012-10-08 19:44:00
1:53 PM,59.0,21.0,23,29.85,8.0,WSW,17.3,-,N/A,,Overcast,240,2012-10-08 19:53:00
2:53 PM,57.9,28.0,32,29.86,10.0,NNW,11.5,-,N/A,,Overcast,330,2012-10-08 20:53:00
3:53 PM,57.0,28.0,33,29.87,10.0,West,5.8,-,N/A,,Overcast,280,2012-10-08 21:53:00
4:53 PM,57.0,28.0,33,29.86,10.0,Calm,Calm,-,N/A,,Mostly Cloudy,0,2012-10-08 22:53:00
5:53 PM,50.0,37.0,61,29.92,10.0,ENE,16.1,-,N/A,,Overcast,70,2012-10-08 23:53:00
6:53 PM,46.9,36.0,66,29.92,10.0,East,9.2,-,N/A,,Overcast,90,2012-10-09 00:53:00
8:53 PM,41.0,36.0,82,29.99,10.0,East,19.6,-,0.00,Rain,Light Rain,90,2012-10-09 02:53:00
9:04 PM,39.2,33.8,81,30.00,10.0,East,18.4,26.5,0.00,,Overcast,90,2012-10-09 03:04:00
9:32 PM,37.4,33.8,87,30.02,10.0,East,19.6,-,0.00,Rain,Light Rain,90,2012-10-09 03:32:00
9:40 PM,37.4,33.8,87,30.02,10.0,East,16.1,24.2,0.00,Rain,Light Rain,90,2012-10-09 03:40:00
9:53 PM,37.9,33.1,83,30.03,10.0,East,18.4,-,0.00,Rain,Light Rain,100,2012-10-09 03:53:00
10:53 PM,37.0,33.1,86,30.04,10.0,East,11.5,-,0.01,,Overcast,90,2012-10-09 04:53:00
11:53 PM,36.0,33.1,89,30.07,10.0,East,9.2,-,0.00,,Overcast,80,2012-10-09 05:53:00